,

(GMT )
St.-Anicet

Weather History for CWBZ - October, 2012

Change the Weather History Date:

Friday, October 26, 2012

  Actual Average Record
Temperature  
Mean Temperature 56 °F -  
Max Temperature 76 °F - - ()
Min Temperature 36 °F - - ()
Degree Days  
Heating Degree Days 9    
Growing Degree Days 6 (Base 50)    
Moisture  
Dew Point 45 °F    
Average Humidity 81    
Maximum Humidity 99    
Minimum Humidity 49    
Precipitation  
Precipitation 0.00 in - - ()
Sea Level Pressure  
Sea Level Pressure 30.10 in    
Wind  
Wind Speed 3 mph ()    
Max Wind Speed 14 mph    
Max Gust Speed -    
T = Trace of Precipitation, MM = Missing Value Source: Averaged Metar Reports

Daily Weather History Graph

Daily Weather History Graph

Search for Another Location

Airport or City:

Trip Planner

Search our weather history database for the weather conditions in past years. The results will help you decide how hot, cold, wet, or windy it might be!

Date:

Astronomy

Oct. 26, 2012 Rise Set
Actual Time 7:28 AM EDT 5:53 PM EDT
Civil Twilight 6:57 AM EDT 6:23 PM EDT
Nautical Twilight 6:23 AM EDT 6:57 PM EDT
Astronomical Twilight 5:49 AM EDT 7:31 PM EDT
Moon 4:13 PM EDT (10/26) 4:15 AM EDT (10/26)
Length of Visible Light 11h 25m
Length of Day
10h 24m
Waxing Gibbous, 91% of the Moon is Illuminated
Oct 26
Waxing Gibbous
Oct 29
Full
Nov 6
Last Quarter
Nov 13
New
Nov 20
First Quarter

Hourly Weather History & Observations

Time (EDT) Temp. Windchill Dew Point Humidity Pressure Visibility Wind Dir Wind Speed Gust Speed Precip Events Conditions
2:00 AM 46 °F - 45 °F 96% 30.07 in - ENE 1.2 mph - -  
3:00 AM 43.2 °F - 42.4 °F 97% 30.08 in - NE 1.2 mph - N/A   Unknown
4:00 AM 43.0 °F - 42.4 °F 98% 30.08 in - ENE 1.2 mph - N/A   Unknown
5:00 AM 41.9 °F - 41.4 °F 98% 30.08 in - East 1.2 mph - N/A   Unknown
6:00 AM 35.8 °F 33.0 °F 31.1 °F 83% 30.21 in - East 3.5 mph - N/A   Unknown
7:00 AM 36.0 °F 31.1 °F 31.1 °F 82% 30.22 in - ENE 5.8 mph - N/A   Unknown
8:00 AM 41 °F - 40 °F 97% 30.11 in - WNW 1.2 mph - -  
8:00 AM 36.0 °F 32.1 °F 31.3 °F 83% 30.24 in - ENE 4.6 mph - N/A   Unknown
9:00 AM 47.5 °F - 47.3 °F 99% 30.12 in - Calm Calm - N/A   Unknown
10:00 AM 54.7 °F - 51.4 °F 89% 30.12 in - East 3.5 mph - N/A   Unknown
11:00 AM 48.0 °F - 38.8 °F 71% 30.19 in - East 8.1 mph - N/A   Unknown
12:00 PM 49.8 °F - 39.2 °F 67% 30.18 in - East 6.9 mph - N/A   Unknown
1:00 PM 52.5 °F - 40.8 °F 64% 30.16 in - ENE 8.1 mph - N/A   Unknown
2:00 PM 52.2 °F - 33.6 °F 49% 30.17 in - NE 13.8 mph - N/A   Unknown
3:00 PM 73.4 °F - 56.1 °F 55% 30.04 in - North 5.8 mph - N/A   Unknown
4:00 PM 73.9 °F - 55.4 °F 52% 30.03 in - NNE 3.5 mph - N/A   Unknown
5:00 PM 70.9 °F - 55.9 °F 59% 30.02 in - NE 5.8 mph - N/A   Unknown
6:00 PM 63.5 °F - 55.2 °F 74% 30.03 in - ENE 3.5 mph - N/A   Unknown
7:00 PM 59.2 °F - 54.5 °F 84% 30.04 in - East 2.3 mph - N/A   Unknown
8:00 PM 57 °F - 54 °F 84% 30.05 in - ENE 1.2 mph - -  
8:00 PM 57.2 °F - 53.6 °F 88% 30.05 in - ENE 1.2 mph - N/A   Unknown
9:00 PM 54.3 °F - 52.3 °F 93% 30.06 in - Calm Calm - N/A   Unknown
10:00 PM 51.1 °F - 49.8 °F 95% 30.06 in - ENE 1.2 mph - N/A   Unknown
11:00 PM 50.0 °F - 49.3 °F 97% 30.07 in - SSW 2.3 mph - N/A   Unknown